Miscellaneous Local Product
Issued by NWS North Platte, NE

Home | Current Version | Previous Version | Text Only | Print | Product List | Glossary On
Versions: 1 2 3 4 5 6 7 8 9 10 11 12 13 14 15 16 17 18 19 20 21 22 23 24 25 26 27 28 29 30 31 32 33 34 35 36 37 38 39 40 41 42 43 44 45 46 47 48 49 50
000
AXUS43 KLBF 032210
MISLBF


WESTERN AND NORTH CENTRAL NEBRASKA HOURLY WEATHER ROUNDUP
NATIONAL WEATHER SERVICE NORTH PLATTE NE
500 PM CDT THU SEP 03 2015

NOTE: "FAIR" INDICATES FEW OR NO CLOUDS BELOW 12,000 FEET WITH NO
SIGNIFICANT WEATHER AND/OR OBSTRUCTIONS TO VISIBILITY.

NOTE: STATIONS NOT REPORTING VARIABLES SUCH AS SKY/WEATHER OR
PRESSURE ARE PROVIDED BY THE NEBRASKA DEPARTMENT OF
ROADS...RAWS...AND APRS NETWORKS...AND ARE NOT UNDER
NATIONAL WEATHER SERVICE QUALITY CONTROL.

...OBSERVATIONS IN AND NEAR THE EASTERN PANHANDLE OF NEBRASKA...

CITY           SKY/WX    TMP DP  RH WIND       PRES   REMARKS
PINE RIDGE     CLOUDY    94  51  23 S7        29.77F HX  91
CHADRON        CLOUDY    97  44  16 SW10      29.75F HX  93
ALLIANCE       CLOUDY    87  48  25 SW14      29.84S
SIDNEY         CLOUDY    85  47  26 NW16      29.89F
CRESCENT LAKE    N/A     86  46  24 E9G16       N/A
BIG SPRINGS      N/A     88  60  38 SE5         N/A
$$

...OBSERVATIONS IN NORTH CENTRAL NEBRASKA...

CITY           SKY/WX    TMP DP  RH WIND       PRES   REMARKS
VALENTINE      CLOUDY    96  56  26 E16       29.74F HX  94
THEDFORD       PTSUNNY   95  60  30 S13       29.78S HX  94
AINSWORTH      CLOUDY    92  61  35 SE12      29.76S HX  92
O`NEILL        PTSUNNY   88  71  56 SE13      29.77F HX  94
ORD            PTSUNNY   93  63  36 S16G25    29.75F HX  94
BROKEN BOW     MOSUNNY   93  64  38 S16G23    29.78F HX  94
SPRINGVIEW       N/A     90  71  52 E8          N/A  HX  96
SARGENT          N/A     92  65  40 CALM        N/A  HX  94
CHAMBERS         N/A     90  68  48 E3G13       N/A  HX  94
EWING            N/A     89  74  60 SE6         N/A  HX  97
$$

...OBSERVATIONS IN SOUTHWEST NEBRASKA AND FAR NORTHEAST COLORADO...

CITY           SKY/WX    TMP DP  RH WIND       PRES   REMARKS
WRAY           CLOUDY    98  38  12 E5        29.81F HX  93
HOLYOKE        FAIR      95  50  21 SE8       29.82F HX  92
IMPERIAL       CLOUDY    94  52  24 SW6       29.78F HX  91
OGALLALA       MOSUNNY   96  50  21 SE8       29.78F HX  93
NORTH PLATTE   MOSUNNY   91  62  37 SE7       29.76F HX  91
MCCOOK         PTSUNNY   98  55  23 SE14G22   29.73F HX  96
LEXINGTON      MOSUNNY   94  60  31 SE10      29.77F HX  93
PAXTON           N/A     92  66  42 SE3         N/A  HX  95
BRADY            N/A     93  67  42 CALM        N/A  HX  96
CALLAWAY         N/A     87  72  60 SE9         N/A  HX  93
$$

...OBSERVATIONS IN CENTRAL LINCOLN COUNTY AREA...

CITY           SKY/WX    TMP DP  RH WIND       PRES   REMARKS
N.P. AIRPORT   MOSUNNY   91  62  37 SE7       29.76F HX  91
N.P. DOWNTOWN    N/A     94  64  36 S5          N/A  HX  95
N.P. SOUTHEAST   N/A     93  62  35 SE6         N/A  HX  93
N.P. HILLCREST   N/A     92  63  38 SE8         N/A  HX  93
$$

...SOME OBSERVATIONS FROM AROUND THE REGION...

CITY           SKY/WX    TMP DP  RH WIND       PRES   REMARKS
DENVER         PTSUNNY   83  41  22 N6        29.98S
LARAMIE        CLOUDY    59  49  69 S25G37    30.14R
CHEYENNE       CLOUDY    73  48  41 SW12      30.04F
SCOTTSBLUFF    PTSUNNY   84  49  29 S7        29.86F
RAPID CITY     PTSUNNY   93  48  21 S14G24    29.73F
PIERRE         MOSUNNY   97  54  23 SE22G28   29.67F HX  95
WINNER         FAIR      95  56  26 SE14      29.72F HX  93
SIOUX FALLS    MOSUNNY   86  71  60 SE14G22   29.78F HX  91
OMAHA          MOSUNNY   93  70  46 S20       29.80F HX  99
GRAND ISLAND   MOSUNNY   94  67  41 SE14      29.78F HX  97
KANSAS CITY    MOSUNNY   90  66  45 S14       29.89S HX  92
WICHITA        PTSUNNY   93  63  36 S21G28    29.84F HX  94
HAYS           PTSUNNY   99  55  23 S23G35    29.77F HX  97
LIBERAL        PTSUNNY   99  52  20 S16       29.83F HX  96
GOODLAND       PTSUNNY   94  46  19 S15       29.81F HX  90
$$



USA.gov is the U.S. government's official web portal to all federal, state and local government web resources and services.